Location: Unspecified
(0.0000°N, 0.0000°E)
Time: 15:17:41
(UTC+00:00)

TBA - TO BE ASSIGNED - Visible Passes

Search period start: 08 June 2026 00:00
Search period end: 18 June 2026 00:00
Orbit: 451 x 455 km, 51.9° (Epoch: 7 June)

Date Brightness Start Highest point End Pass type
(mag) Time Alt. Az. Time Alt. Az. Time Alt. Az.
13 Jun ? 19:16:03 10° SSW 19:19:36 78° SE 19:22:05 18° NE visible
14 Jun ? 18:39:11 10° SSW 18:42:37 46° SE 18:46:02 10° NE visible
15 Jun ? 19:42:25 10° WNW 19:42:54 10° NW 19:43:22 10° NW visible
16 Jun ? 19:03:34 10° W 19:05:49 16° NW 19:08:03 10° NNW visible
17 Jun ? 05:07:49 10° NNE 05:09:55 15° NE 05:12:01 10° E visible
17 Jun ? 18:25:45 10° WSW 18:28:42 24° NW 18:31:38 10° N visible
